• In Kazakhstan
  • List of Countries
  • For 7 days
  • Water Temperature
  • Satellite Maps
  • Weather Map
  • News
  • Weather Widgets
  • user-avatar
    Login

    Hourly Weather Konya

    Today, 17 August, Thursday

    Time Temperature Precipitation Wind Pressure Humidity
    00:00 +26°C° 0.2 mm 4 mps 669 mmHg 53%
    01:00 +25°C° 0.2 mm 3 mps 669 mmHg 55%
    02:00 +25°C° 0.2 mm 3 mps 669 mmHg 57%
    03:00 +24°C° 0.1 mm 3 mps 668 mmHg 60%
    04:00 +24°C° 0.1 mm 3 mps 668 mmHg 62%
    05:00 +22°C° 0.1 mm 3 mps 668 mmHg 65%
    06:00 +24°C° 0.1 mm 3 mps 669 mmHg 62%
    07:00 +25°C° 0.1 mm 3 mps 669 mmHg 60%
    08:00 +26°C° 0.1 mm 3 mps 669 mmHg 57%
    09:00 +27°C° 0.1 mm 3 mps 669 mmHg 51%
    10:00 +28°C° 0.1 mm 2 mps 670 mmHg 46%
    11:00 +30°C° 0.1 mm 2 mps 670 mmHg 40%
    12:00 +30°C° 0 mm 2 mps 670 mmHg 37%
    13:00 +31°C° 0 mm 2 mps 670 mmHg 34%
    14:00 +32°C° 0 mm 2 mps 670 mmHg 31%
    15:00 +32°C° 0.1 mm 2 mps 670 mmHg 32%
    16:00 +31°C° 0.1 mm 2 mps 669 mmHg 32%
    17:00 +31°C° 0.1 mm 3 mps 669 mmHg 32%
    18:00 +30°C° 0.2 mm 3 mps 669 mmHg 36%
    19:00 +29°C° 0.2 mm 3 mps 670 mmHg 39%
    20:00 +29°C° 0.2 mm 3 mps 670 mmHg 42%
    21:00 +28°C° 0.1 mm 4 mps 670 mmHg 44%
    22:00 +27°C° 0.1 mm 4 mps 670 mmHg 47%
    23:00 +26°C° 0.1 mm 4 mps 670 mmHg 49%

    Tomorrow, 18 August, Friday

    Time Temperature Precipitation Wind Pressure Humidity
    00:00 +25°C° 0 mm 4 mps 670 mmHg 53%
    01:00 +25°C° 0 mm 4 mps 670 mmHg 57%
    02:00 +23°C° 0 mm 4 mps 669 mmHg 60%
    03:00 +22°C° 0 mm 3 mps 669 mmHg 64%
    04:00 +22°C° 0 mm 3 mps 669 mmHg 67%
    05:00 +21°C° 0 mm 2 mps 669 mmHg 70%
    06:00 +23°C° 0 mm 2 mps 670 mmHg 66%
    07:00 +24°C° 0 mm 3 mps 670 mmHg 62%
    08:00 +25°C° 0 mm 3 mps 671 mmHg 58%
    09:00 +26°C° 0 mm 3 mps 671 mmHg 53%
    10:00 +28°C° 0 mm 3 mps 671 mmHg 49%
    11:00 +29°C° 0 mm 3 mps 672 mmHg 44%
    12:00 +30°C° 0 mm 3 mps 672 mmHg 41%
    13:00 +30°C° 0 mm 3 mps 672 mmHg 38%
    14:00 +31°C° 0 mm 2 mps 671 mmHg 34%
    15:00 +31°C° 0 mm 3 mps 671 mmHg 34%
    16:00 +31°C° 0 mm 3 mps 671 mmHg 34%
    17:00 +31°C° 0 mm 3 mps 671 mmHg 33%
    18:00 +30°C° 0 mm 3 mps 671 mmHg 36%
    19:00 +29°C° 0 mm 3 mps 672 mmHg 38%
    20:00 +28°C° 0 mm 4 mps 672 mmHg 40%
    21:00 +28°C° 0 mm 3 mps 672 mmHg 42%
    22:00 +27°C° 0 mm 3 mps 672 mmHg 44%
    23:00 +26°C° 0 mm 3 mps 672 mmHg 46%

    Day after tomorrow, 19 August, Saturday

    Time Temperature Precipitation Wind Pressure Humidity
    00:00 +26°C° 0 mm 3 mps 672 mmHg 48%
    01:00 +25°C° 0 mm 3 mps 672 mmHg 50%
    02:00 +24°C° 0 mm 3 mps 671 mmHg 53%
    03:00 +24°C° 0 mm 3 mps 671 mmHg 56%
    04:00 +22°C° 0 mm 3 mps 671 mmHg 60%
    05:00 +22°C° 0 mm 3 mps 671 mmHg 63%
    06:00 +24°C° 0 mm 3 mps 672 mmHg 60%
    07:00 +25°C° 0 mm 3 mps 672 mmHg 56%
    08:00 +26°C° 0 mm 3 mps 672 mmHg 53%
    09:00 +27°C° 0 mm 3 mps 673 mmHg 48%
    10:00 +28°C° 0 mm 2 mps 673 mmHg 44%
    11:00 +30°C° 0 mm 2 mps 673 mmHg 40%
    12:00 +30°C° 0 mm 2 mps 673 mmHg 37%
    13:00 +31°C° 0 mm 2 mps 673 mmHg 35%
    14:00 +32°C° 0 mm 2 mps 673 mmHg 32%
    15:00 +32°C° 0 mm 2 mps 673 mmHg 32%
    16:00 +32°C° 0 mm 2 mps 673 mmHg 31%
    17:00 +32°C° 0 mm 2 mps 673 mmHg 31%
    18:00 +31°C° 0 mm 2 mps 673 mmHg 33%
    19:00 +30°C° 0 mm 2 mps 673 mmHg 35%
    20:00 +29°C° 0 mm 2 mps 673 mmHg 37%
    21:00 +29°C° 0 mm 2 mps 673 mmHg 39%
    22:00 +28°C° 0 mm 2 mps 673 mmHg 41%
    23:00 +28°C° 0 mm 3 mps 673 mmHg 43%

    20 August, Sunday

    Time Temperature Precipitation Wind Pressure Humidity
    00:00 +27°C° 0 mm 3 mps 673 mmHg 44%
    01:00 +26°C° 0 mm 3 mps 672 mmHg 46%
    02:00 +25°C° 0 mm 3 mps 672 mmHg 48%
    03:00 +25°C° 0 mm 3 mps 672 mmHg 49%
    04:00 +24°C° 0 mm 3 mps 672 mmHg 51%
    05:00 +22°C° 0 mm 3 mps 672 mmHg 52%
    06:00 +25°C° 0 mm 3 mps 672 mmHg 49%
    07:00 +26°C° 0 mm 3 mps 672 mmHg 45%
    08:00 +27°C° 0 mm 3 mps 673 mmHg 42%
    09:00 +28°C° 0 mm 2 mps 673 mmHg 39%
    10:00 +30°C° 0 mm 2 mps 673 mmHg 36%
    11:00 +31°C° 0 mm 2 mps 673 mmHg 33%
    12:00 +32°C° 0 mm 2 mps 673 mmHg 30%
    13:00 +32°C° 0 mm 2 mps 673 mmHg 28%
    14:00 +33°C° 0 mm 1 mps 673 mmHg 25%
    15:00 +34°C° 0 mm 2 mps 672 mmHg 25%
    16:00 +34°C° 0 mm 2 mps 672 mmHg 24%
    17:00 +34°C° 0 mm 2 mps 672 mmHg 23%
    18:00 +32°C° 0 mm 2 mps 672 mmHg 26%
    19:00 +31°C° 0 mm 3 mps 672 mmHg 28%
    20:00 +30°C° 0 mm 3 mps 672 mmHg 30%
    21:00 +29°C° 0 mm 3 mps 672 mmHg 34%
    22:00 +28°C° 0 mm 2 mps 671 mmHg 38%
    23:00 +27°C° 0 mm 2 mps 671 mmHg 42%

    21 August, Monday

    Time Temperature Precipitation Wind Pressure Humidity
    00:00 +26°C° 0 mm 2 mps 671 mmHg 44%
    01:00 +26°C° 0 mm 2 mps 671 mmHg 46%
    02:00 +25°C° 0 mm 3 mps 671 mmHg 48%
    03:00 +25°C° 0 mm 2 mps 671 mmHg 50%
    04:00 +24°C° 0 mm 2 mps 670 mmHg 52%
    05:00 +24°C° 0 mm 2 mps 670 mmHg 55%
    06:00 +25°C° 0 mm 2 mps 671 mmHg 52%
    07:00 +26°C° 0 mm 2 mps 671 mmHg 49%
    08:00 +27°C° 0 mm 2 mps 672 mmHg 46%
    09:00 +28°C° 0 mm 2 mps 672 mmHg 42%
    10:00 +30°C° 0 mm 2 mps 672 mmHg 37%
    11:00 +31°C° 0 mm 2 mps 672 mmHg 33%
    12:00 +32°C° 0 mm 2 mps 672 mmHg 30%
    13:00 +32°C° 0 mm 2 mps 672 mmHg 27%
    14:00 +34°C° 0 mm 2 mps 672 mmHg 25%
    15:00 +34°C° 0 mm 2 mps 671 mmHg 25%
    16:00 +34°C° 0 mm 3 mps 671 mmHg 26%
    17:00 +34°C° 0 mm 3 mps 671 mmHg 27%
    18:00 +33°C° 0 mm 3 mps 671 mmHg 30%
    19:00 +31°C° 0 mm 3 mps 671 mmHg 33%
    20:00 +30°C° 0 mm 4 mps 672 mmHg 36%
    21:00 +29°C° 0 mm 4 mps 672 mmHg 39%
    22:00 +28°C° 0 mm 3 mps 671 mmHg 42%
    23:00 +27°C° 0 mm 3 mps 671 mmHg 45%

    22 August, Tuesday

    Time Temperature Precipitation Wind Pressure Humidity
    00:00 +26°C° 0 mm 3 mps 671 mmHg 47%
    01:00 +26°C° 0 mm 3 mps 671 mmHg 50%
    02:00 +25°C° 0 mm 3 mps 671 mmHg 52%
    03:00 +24°C° 0 mm 2 mps 671 mmHg 55%
    04:00 +24°C° 0 mm 2 mps 671 mmHg 58%
    05:00 +23°C° 0 mm 2 mps 671 mmHg 60%
    06:00 +24°C° 0 mm 2 mps 671 mmHg 57%
    07:00 +25°C° 0 mm 2 mps 672 mmHg 54%
    08:00 +26°C° 0 mm 2 mps 672 mmHg 51%
    09:00 +28°C° 0 mm 2 mps 672 mmHg 46%
    10:00 +29°C° 0 mm 2 mps 672 mmHg 42%
    11:00 +30°C° 0 mm 2 mps 672 mmHg 37%
    12:00 +31°C° 0 mm 2 mps 672 mmHg 33%
    13:00 +32°C° 0 mm 2 mps 672 mmHg 30%
    14:00 +34°C° 0 mm 2 mps 672 mmHg 27%
    15:00 +34°C° 0 mm 2 mps 672 mmHg 26%
    16:00 +34°C° 0 mm 2 mps 671 mmHg 25%
    17:00 +34°C° 0 mm 3 mps 671 mmHg 24%
    18:00 +32°C° 0 mm 2 mps 671 mmHg 27%
    19:00 +31°C° 0 mm 2 mps 671 mmHg 29%
    20:00 +30°C° 0 mm 2 mps 671 mmHg 32%
    21:00 +29°C° 0 mm 2 mps 671 mmHg 33%
    22:00 +28°C° 0 mm 2 mps 671 mmHg 35%
    23:00 +27°C° 0 mm 1 mps 671 mmHg 37%
    Show more